Regional Weather Roundup
Issued by NWS Jackson, KY

Home | Current Version | Previous Version | Text Only | Print | Product List | Glossary Off
Versions: 1 2 3 4 5 6 7 8 9 10 11 12 13 14 15 16 17 18 19 20 21 22 23 24 25 26 27 28 29 30 31 32 33 34 35 36 37 38 39 40 41 42 43 44 45 46 47 48 49 50

000
ASUS43 KJKL 040310
RWRJKL

EAST KENTUCKY HOURLY WEATHER ROUNDUP
NATIONAL WEATHER SERVICE JACKSON KY
1100 PM EDT TUE MAY 03 2016

NOTE: "FAIR" INDICATES FEW OR NO CLOUDS BELOW 12,000 FEET WITH
NO SIGNIFICANT WEATHER AND/OR OBSTRUCTIONS TO VISIBILITY.

* THESE REPORTS ARE NOT UNDER NWS QUALITY CONTROL AND MAY NOT
  REPORT WEATHER SUCH AS PRECIPITATION AND FOG.

KYZ079-080-083-085-087-088-110-112-115-119-120-040400
...EASTERN KENTUCKY...

CITY           SKY/WX    TMP DP  RH WIND       PRES   REMARKS
JACKSON        CLOUDY    54  47  77 W3        29.88S
LONDON         CLOUDY    56  47  71 W6        29.89S
SOMERSET*      CLOUDY    55  45  67 W3        29.91S
MONTICELLO*    CLOUDY    56  50  80 W5        29.92S
WILLIAMSBURG*  MOCLDY    54  52  94 CALM      29.90F
MIDDLESBORO*   CLEAR     52  48  88 NW6       29.90S
HARLAN APT*    MOCLDY    50  45  81 CALM      29.89F
HAZARD APT*    CLOUDY    55  48  76 CALM      29.88S
BLACK MTN*       N/A     43  43 100 VRB5        N/A
PIKE CO APT*   CLOUDY    53  48  84 CALM      29.88S
BIG SANDY APT* CLOUDY    54  49  81 CALM      29.87F
MOREHEAD APT*  CLOUDY    54  50  87 CALM      29.90S
$$

KYZ035-036-041-042-044-050-067-078-099-040400
...CENTRAL KENTUCKY...

CITY           SKY/WX    TMP DP  RH WIND       PRES   REMARKS
MT STERLING*   CLOUDY    54  50  87 CALM      29.89F
FLEMING/MASON* CLOUDY    52  51  97 W6        29.88F
DANVILLE*      CLOUDY    54  46  76 N3        29.91S
RICHMOND*      CLOUDY    55  48  76 NW5       29.89S
LEXINGTON      CLOUDY    54  48  80 NW5       29.89F
FRANKFORT      CLOUDY    54  48  80 W3        29.88F
LOUISVILLE     PTCLDY    55  45  68 W6        29.89F
LEBANON*         N/A     54  46  76 W3        29.91S
BOWLING GREEN  CLEAR     55  46  71 CALM      29.93R
$$

KYZ091>093-OHZ055-061-077-WVZ005-015-034-035-042-040400
...SOUTHERN OHIO/WEST VIRGINIA...

CITY           SKY/WX    TMP DP  RH WIND       PRES   REMARKS
COVINGTON      PTCLDY    52  50  93 SW5       29.87S
COLUMBUS       CLOUDY    53  46  77 W5        29.84S
DAYTON         MOCLDY    50  46  86 SW5       29.85F
WILMINGTON     CLOUDY    53  47  79 W6        29.86S
HUNTINGTON     LGT RAIN  55  50  83 W6        29.86R
CHARLESTON     MOCLDY    56  53  90 CALM      29.85S
PINEVILLE*     MOCLDY    52  49  89 MISG      29.91S
BECKLEY        CLOUDY    51  49  92 CALM      29.87F
$$

VAZ002-007-008-TNZ017-027-036-066-071-040400
...SOUTHWEST VIRGINIA/EAST TENNESSEE...

CITY           SKY/WX    TMP DP  RH WIND       PRES   REMARKS
WISE*            N/A     50  41  71 NW5       29.89F
BRISTOL        CLOUDY    59  46  62 W6        29.86R
MORRISTOWN*    CLOUDY    59  48  67 CALM      29.87S
SEVIERVILLE*   CLOUDY    59  48  67 NW3       29.88R
KNOXVILLE      MOCLDY    61  48  62 CALM      29.88R
OAK RIDGE      CLEAR     57  47  69 CALM      29.90R
CROSSVILLE     CLOUDY    56  46  69 W3        29.93R
NASHVILLE      MOCLDY    58  46  64 W5        29.94R
$$

...KEY TO REMARKS...
VSB - VISIBILITY IN MILES
WCI - WIND CHILL INDEX
HX  - HEAT INDEX

$$



USA.gov is the U.S. government's official web portal to all federal, state and local government web resources and services.